EW9904 Weather Reports


Display with metric or nautical units.
time (UTC)temp
F
wind
direction
speed
MPH
gust
MPH
rain 1hr
in
rain 24hr
in
rain mn
in
humidity
%
barometer
mb
20260510191003 77 93 2.0 6.0 0.00 0.00 0.00 59 1012.4
20260510190502 77 338 3.0 8.0 0.00 0.00 0.00 56 1012.4
20260510190002 77 28 3.0 8.0 0.00 0.00 0.00 57 1012.4
20260510185502 77 153 2.0 6.0 0.00 0.00 0.00 59 1012.6
20260510185002 78 120 2.0 6.0 0.00 0.00 0.00 59 1012.6
20260510184502 77 235 3.0 6.0 0.00 0.00 0.00 59 1012.6
20260510184002 77 100 3.0 8.0 0.00 0.00 0.00 58 1012.5
20260510183501 77 217 3.0 8.0 0.00 0.00 0.00 58 1012.6
20260510183003 77 63 3.0 7.0 0.00 0.00 0.00 58 1012.5
20260510181501 78 24 3.0 9.0 0.00 0.00 0.00 59 1012.7
20260510181002 78 22 2.0 9.0 0.00 0.00 0.00 58 1012.8
20260510180501 77 184 3.0 9.0 0.00 0.00 0.00 57 1012.7
20260510180004 79 211 3.0 8.0 0.00 0.00 0.00 57 1012.7
20260510175502 78 111 3.0 8.0 0.00 0.00 0.00 59 1012.7
20260510175002 78 69 3.0 8.0 0.00 0.00 0.00 60 1012.8
20260510174501 78 103 4.0 9.0 0.00 0.00 0.00 57 1012.7
20260510174002 80 109 5.0 11.0 0.00 0.00 0.00 53 1012.6
20260510173002 81 155 3.0 10.0 0.00 0.00 0.00 54 1012.7
20260510172501 82 51 3.0 7.0 0.00 0.00 0.00 51 1012.7
20260510172003 80 271 3.0 6.0 0.00 0.00 0.00 54 1012.6
20260510171501 80 71 2.0 6.0 0.00 0.00 0.00 54 1012.7
20260510171003 80 156 3.0 8.0 0.00 0.00 0.00 55 1012.7
20260510170502 79 178 3.0 8.0 0.00 0.00 0.00 56 1012.7
20260510170003 78 224 3.0 10.0 0.00 0.00 0.00 53 1012.7
20260510165502 81 153 4.0 10.0 0.00 0.00 0.00 53 1012.8
20260510165003 80 188 3.0 10.0 0.00 0.00 0.00 53 1012.8
20260510164501 81 101 3.0 9.0 0.00 0.00 0.00 53 1012.9
20260510164003 80 98 3.0 9.0 0.00 0.00 0.00 54 1012.8
20260510163501 81 219 3.0 9.0 0.00 0.00 0.00 56 1012.9
20260510163005 80 173 3.0 8.0 0.00 0.00 0.00 57 1013.0
20260510161503 80 173 2.0 6.0 0.00 0.00 0.00 47 1013.0
20260510161003 81 173 2.0 6.0 0.00 0.00 0.00 53 1013.1
20260510160502 79 177 2.0 5.0 0.00 0.00 0.00 50 1013.1
20260510155502 80 229 3.0 8.0 0.00 0.00 0.00 51 1013.1
20260510155002 79 180 3.0 8.0 0.00 0.00 0.00 51 1013.1
20260510154003 78 180 3.0 8.0 0.00 0.00 0.00 54 1013.2
20260510153501 78 340 2.0 7.0 0.00 0.00 0.00 55 1013.1
20260510153003 78 243 2.0 7.0 0.00 0.00 0.00 57 1013.2
20260510152503 78 208 1.0 5.0 0.00 0.00 0.00 54 1013.2
20260510151503 77 207 2.0 5.0 0.00 0.00 0.00 52 1013.3
20260510151004 77 162 3.0 7.0 0.00 0.00 0.00 54 1013.4
20260510150503 77 266 2.0 7.0 0.00 0.00 0.00 54 1013.5
20260510145002 77 331 3.0 8.0 0.00 0.00 0.00 60 1013.5
20260510144501 76 175 3.0 8.0 0.00 0.00 0.00 57 1013.5
20260510143502 75 281 2.0 4.0 0.00 0.00 0.00 58 1013.4
20260510143002 75 355 2.0 5.0 0.00 0.00 0.00 56 1013.4
20260510142502 76 355 3.0 5.0 0.00 0.00 0.00 56 1013.4
20260510142003 75 5 3.0 8.0 0.00 0.00 0.00 56 1013.3
20260510141503 75 331 2.0 8.0 0.00 0.00 0.00 58 1013.4
20260510141002 74 341 1.0 4.0 0.00 0.00 0.00 61 1013.3
20260510140005 74 344 2.0 5.0 0.00 0.00 0.00 63 1013.4
20260510135500 74 344 2.0 5.0 0.00 0.00 0.00 65 1013.5
20260510135002 74 350 3.0 5.0 0.00 0.00 0.00 65 1013.4
20260510134500 74 347 2.0 5.0 0.00 0.00 0.00 64 1013.4
20260510134001 74 347 1.0 5.0 0.00 0.00 0.00 65 1013.4
20260510133500 73 347 2.0 6.0 0.00 0.00 0.00 67 1013.4
20260510132500 72 350 1.0 4.0 0.00 0.00 0.00 67 1013.5
20260510131504 71 350 3.0 4.0 0.00 0.00 0.00 68 1013.5
20260510131001 70 350 3.0 6.0 0.00 0.00 0.00 69 1013.5
20260510130502 70 341 2.0 5.0 0.00 0.00 0.00 70 1013.4
20260510130005 69 347 3.0 5.0 0.00 0.00 0.00 72 1013.4
20260510125501 69 340 3.0 5.0 0.00 0.00 0.00 72 1013.3
20260510125001 68 341 3.0 5.0 0.00 0.00 0.00 75 1013.3
20260510124002 68 347 2.0 5.0 0.00 0.00 0.00 75 1013.0
20260510123001 67 267 1.0 4.0 0.00 0.00 0.00 76 1012.7
20260510122501 67 267 1.0 3.0 0.00 0.00 0.00 77 1012.7
20260510122005 65 267 1.0 3.0 0.00 0.00 0.00 78 1012.7
20260510121503 66 265 1.0 3.0 0.00 0.00 0.00 79 1012.7
20260510120500 65 265 2.0 4.0 0.00 0.00 0.00 81 1012.7
20260510120003 64 261 1.0 3.0 0.00 0.00 0.00 83 1012.5
20260510115501 64 262 0.0 2.0 0.00 0.00 0.00 83 1012.5
20260510115001 63 262 0.0 2.0 0.00 0.00 0.00 85 1012.4
20260510114502 62 262 0.0 2.0 0.00 0.00 0.00 86 1012.3
20260510114002 62 262 0.0 2.0 0.00 0.00 0.00 86 1012.3
20260510113501 61 262 0.0 1.0 0.00 0.00 0.00 88 1012.2
20260510112502 60 262 0.0 2.0 0.00 0.00 0.00 89 1012.2
20260510112001 60 262 1.0 2.0 0.00 0.00 0.00 89 1012.2
20260510111501 59 262 0.0 3.0 0.00 0.00 0.00 90 1012.1
20260510111001 58 262 0.0 2.0 0.00 0.00 0.00 91 1012.0
20260510110500 57 262 0.0 2.0 0.00 0.00 0.00 91 1012.0
20260510105502 57 262 0.0 2.0 0.00 0.00 0.00 91 1011.9
20260510105001 56 262 0.0 2.0 0.00 0.00 0.00 92 1011.8
20260510104501 56 262 0.0 1.0 0.00 0.00 0.00 92 1011.7
20260510103501 55 262 0.0 2.0 0.00 0.00 0.00 91 1011.5
20260510103002 55 262 0.0 1.0 0.00 0.00 0.00 91 1011.5
20260510102500 55 262 0.0 1.0 0.00 0.00 0.00 91 1011.5
20260510102002 56 262 0.0 1.0 0.00 0.00 0.00 91 1011.4
20260510101500 56 262 0.0 1.0 0.00 0.00 0.00 91 1011.3
20260510101001 56 262 0.0 1.0 0.00 0.00 0.00 91 1011.1
20260510100500 56 262 0.0 2.0 0.00 0.00 0.00 91 1011.1
20260510100000 55 262 0.0 1.0 0.00 0.00 0.00 90 1011.0
20260510095459 55 262 0.0 1.0 0.00 0.00 0.00 90 1011.0
20260510094959 55 262 0.0 2.0 0.00 0.00 0.00 90 1011.0
20260510094500 56 262 0.0 2.0 0.00 0.00 0.00 90 1011.0
20260510094000 57 262 0.0 2.0 0.00 0.00 0.00 89 1010.9
20260510093500 57 262 0.0 1.0 0.00 0.00 0.00 89 1010.8
20260510093000 57 262 0.0 1.0 0.00 0.00 0.00 89 1010.7
20260510092000 58 262 2.0 3.0 0.00 0.00 0.00 88 1010.6
20260510091459 58 262 1.0 3.0 0.00 0.00 0.00 87 1010.6
20260510091000 59 262 0.0 2.0 0.00 0.00 0.00 87 1010.4
20260510090458 59 262 0.0 2.0 0.00 0.00 0.00 87 1010.3
20260510090001 59 262 0.0 2.0 0.00 0.00 0.00 87 1010.3
20260510085500 59 262 1.0 2.0 0.00 0.00 0.00 87 1010.3
20260510084459 58 262 0.0 3.0 0.00 0.00 0.00 87 1010.2
20260510084001 59 262 1.0 3.0 0.00 0.00 0.00 86 1010.2
20260510083501 59 262 1.0 2.0 0.00 0.00 0.00 86 1010.2
20260510082500 59 262 0.0 2.0 0.00 0.00 0.00 87 1010.1
20260510082001 59 262 0.0 2.0 0.00 0.00 0.00 87 1010.1
20260510081501 59 262 0.0 2.0 0.00 0.00 0.00 87 1010.2
20260510081001 59 262 1.0 2.0 0.00 0.00 0.00 86 1010.2
20260510080501 59 262 1.0 2.0 0.00 0.00 0.00 85 1010.1
20260510080000 60 263 0.0 1.0 0.00 0.00 0.00 85 1010.1
20260510075500 60 263 0.0 1.0 0.00 0.00 0.00 84 1010.0
20260510074000 60 263 0.0 2.0 0.00 0.00 0.00 85 1010.1
20260510073458 60 263 1.0 3.0 0.00 0.00 0.00 85 1010.0
20260510072959 60 263 1.0 3.0 0.00 0.00 0.00 85 1010.0
20260510072458 59 263 0.0 3.0 0.00 0.00 0.00 86 1010.1
20260510072000 59 261 1.0 3.0 0.00 0.00 0.00 85 1010.1
20260510070959 59 261 0.0 3.0 0.00 0.00 0.00 85 1010.1
20260510070000 59 260 0.0 3.0 0.00 0.00 0.00 85 1010.2
20260510065501 60 281 0.0 4.0 0.00 0.00 0.00 85 1010.2
20260510065000 60 281 1.0 4.0 0.00 0.00 0.00 85 1010.1
20260510064500 60 210 0.0 2.0 0.00 0.00 0.00 86 1010.1
20260510064001 59 210 0.0 2.0 0.00 0.00 0.00 86 1010.1
20260510063500 59 209 1.0 3.0 0.00 0.00 0.00 86 1010.2
20260510063002 59 209 1.0 3.0 0.00 0.00 0.00 87 1010.2
20260510062001 58 206 0.0 2.0 0.00 0.00 0.00 87 1010.1
20260510061001 59 206 0.0 1.0 0.00 0.00 0.00 87 1010.2
20260510060501 58 206 1.0 3.0 0.00 0.00 0.00 88 1010.3
20260510060006 58 206 1.0 3.0 0.00 0.00 0.00 88 1010.3
20260510055459 58 207 1.0 2.0 0.00 0.00 0.00 88 1010.4
20260510055001 58 207 1.0 2.0 0.00 0.00 0.00 88 1010.4
20260510054501 58 207 1.0 2.0 0.00 0.00 0.00 87 1010.4
20260510054000 59 209 1.0 2.0 0.00 0.00 0.00 87 1010.4
20260510053459 59 209 1.0 4.0 0.00 0.00 0.00 87 1010.4
20260510053000 58 209 1.0 4.0 0.00 0.00 0.00 87 1010.5
20260510052500 58 209 1.0 2.0 0.00 0.00 0.00 87 1010.4
20260510052000 59 209 0.0 2.0 0.00 0.00 0.00 87 1010.4
20260510051459 59 209 0.0 3.0 0.00 0.00 0.00 87 1010.4
20260510050959 59 209 1.0 3.0 0.00 0.00 0.00 87 1010.4
20260510050005 59 209 1.0 3.0 0.00 0.00 0.00 87 1010.5
20260510045503 59 209 1.0 3.0 0.00 0.00 0.00 88 1010.4
20260510044502 59 209 0.0 3.0 0.00 0.00 0.00 88 1010.4
20260510044003 59 209 0.0 3.0 0.00 0.00 0.00 88 1010.5
20260510043504 59 209 1.0 3.0 0.00 0.00 0.00 88 1010.5
20260510043005 59 209 0.0 3.0 0.00 0.00 0.00 87 1010.5
20260510042502 59 209 1.0 3.0 0.00 0.00 0.00 88 1010.5
20260510041503 59 209 1.0 5.0 0.00 0.00 0.00 89 1010.4
20260510041004 59 245 1.0 4.0 0.00 0.00 0.00 89 1010.4
20260510040503 59 245 1.0 4.0 0.00 0.00 0.00 89 1010.4
20260510040005 59 245 0.0 1.0 0.00 0.00 0.00 89 1010.4
20260510035503 59 245 0.0 1.0 0.00 0.00 0.00 89 1010.4
20260510035004 59 245 0.0 2.0 0.00 0.00 0.00 89 1010.4
20260510033504 60 245 0.0 1.0 0.00 0.00 0.00 90 1010.2
20260510033005 59 245 0.0 2.0 0.00 0.00 0.00 90 1010.2
20260510032503 59 245 0.0 2.0 0.00 0.00 0.00 90 1010.1
20260510032005 59 245 0.0 3.0 0.00 0.00 0.00 90 1010.1
20260510031503 59 245 0.0 3.0 0.00 0.00 0.00 89 1010.1
20260510031003 60 245 1.0 4.0 0.00 0.00 0.00 89 1010.1
20260510030504 60 245 1.0 4.0 0.00 0.00 0.00 89 1010.0
20260510030007 60 245 0.0 2.0 0.00 0.00 0.00 89 1010.0
20260510025506 60 245 1.0 3.0 0.00 0.00 0.00 89 1010.0
20260510025006 60 245 1.0 3.0 0.00 0.00 0.00 89 1010.0
20260510024505 60 245 1.0 3.0 0.00 0.00 0.00 89 1010.0
20260510023503 60 245 1.0 2.0 0.00 0.00 0.00 88 1010.0
20260510023005 60 245 1.0 2.0 0.00 0.00 0.00 89 1010.1
20260510022005 60 245 1.0 2.0 0.00 0.00 0.00 89 1010.1
20260510021504 60 245 0.0 2.0 0.00 0.00 0.00 88 1010.1
20260510020504 61 245 0.0 4.0 0.00 0.00 0.00 88 1010.2
20260510015503 61 246 0.0 2.0 0.00 0.00 0.00 87 1010.1
20260510015005 61 246 0.0 1.0 0.00 0.00 0.00 87 1010.1
20260510014502 61 246 0.0 2.0 0.00 0.00 0.00 87 1010.0
20260510014004 61 246 0.0 2.0 0.00 0.00 0.00 86 1009.9
20260510013503 62 246 0.0 2.0 0.00 0.00 0.00 86 1009.9
20260510012503 62 246 0.0 1.0 0.00 0.00 0.00 84 1009.9
20260510012004 62 246 0.0 1.0 0.00 0.00 0.00 85 1009.8
20260510011004 63 246 0.0 1.0 0.00 0.00 0.00 83 1009.8
20260510010503 63 246 0.0 1.0 0.00 0.00 0.00 83 1009.7
20260510010004 63 246 0.0 1.0 0.00 0.00 0.00 83 1009.7
20260510005503 63 246 0.0 1.0 0.00 0.00 0.00 82 1009.6
20260510005005 64 246 0.0 1.0 0.00 0.00 0.00 81 1009.6
20260510004503 64 246 0.0 1.0 0.00 0.00 0.00 81 1009.6
20260510004004 64 246 0.0 1.0 0.00 0.00 0.00 80 1009.6
20260510003503 64 246 0.0 1.0 0.00 0.00 0.00 80 1009.5
20260510003004 64 246 0.0 1.0 0.00 0.00 0.00 79 1009.5
20260510002504 65 246 0.0 1.0 0.00 0.00 0.00 79 1009.4
20260510001503 66 246 0.0 1.0 0.00 0.00 0.00 77 1009.3
20260510001003 66 246 0.0 3.0 0.00 0.00 0.00 77 1009.3
20260510000504 66 246 1.0 3.0 0.00 0.00 0.00 77 1009.1
20260509235504 67 246 1.0 2.0 0.00 0.00 0.00 75 1009.0
20260509235004 67 246 0.0 1.0 0.00 0.00 0.00 75 1009.1
20260509234504 68 246 0.0 2.0 0.00 0.00 0.00 74 1009.0
20260509234005 68 246 0.0 2.0 0.00 0.00 0.00 73 1009.0
20260509233503 69 246 0.0 1.0 0.00 0.00 0.00 72 1008.9
20260509233005 69 246 0.0 1.0 0.00 0.00 0.00 71 1008.9
20260509232503 69 246 0.0 1.0 0.00 0.00 0.00 71 1008.8
20260509232004 70 246 0.0 2.0 0.00 0.00 0.00 70 1008.8
20260509231005 70 246 1.0 3.0 0.00 0.00 0.00 69 1008.7
20260509230504 70 246 1.0 4.0 0.00 0.00 0.00 69 1008.8
20260509230005 71 246 1.0 4.0 0.00 0.00 0.00 67 1008.7
20260509225502 71 252 1.0 3.0 0.00 0.00 0.00 67 1008.6
20260509225005 71 252 2.0 7.0 0.00 0.00 0.00 67 1008.6
20260509224005 72 193 2.0 4.0 0.00 0.00 0.00 67 1008.5
20260509223504 72 279 2.0 5.0 0.00 0.00 0.00 66 1008.5
20260509223004 72 215 2.0 5.0 0.00 0.00 0.00 68 1008.5
20260509222503 72 214 3.0 8.0 0.00 0.00 0.00 69 1008.5
20260509222004 72 231 2.0 8.0 0.00 0.00 0.00 67 1008.6
20260509221503 72 188 1.0 5.0 0.00 0.00 0.00 68 1008.6
20260509221004 72 254 1.0 3.0 0.00 0.00 0.00 69 1008.6
20260509220503 72 253 1.0 3.0 0.00 0.00 0.00 70 1008.6
20260509215004 72 181 3.0 10.0 0.00 0.00 0.00 67 1008.5
20260509214004 72 234 3.0 7.0 0.00 0.00 0.00 69 1008.4
20260509213503 71 219 3.0 8.0 0.00 0.00 0.00 69 1008.4
20260509213004 71 205 3.0 6.0 0.00 0.00 0.00 69 1008.4
20260509212503 71 202 3.0 6.0 0.00 0.00 0.00 70 1008.4
20260509211502 70 184 2.0 10.0 0.00 0.00 0.00 72 1008.4
20260509211003 70 198 3.0 10.0 0.00 0.00 0.00 72 1008.4
20260509210503 70 251 5.0 11.0 0.00 0.00 0.00 72 1008.5
20260509205005 70 205 4.0 8.0 0.00 0.00 0.00 72 1008.7
20260509204503 71 211 6.0 16.0 0.00 0.00 0.00 70 1008.6
20260509204004 72 200 5.0 16.0 0.00 0.00 0.00 70 1008.6
20260509203503 73 250 3.0 11.0 0.00 0.00 0.00 69 1008.6
20260509203004 72 227 4.0 11.0 0.00 0.00 0.00 68 1008.6
20260509202503 73 232 3.0 10.0 0.00 0.00 0.00 70 1008.8
20260509202005 73 279 3.0 10.0 0.00 0.00 0.00 70 1009.0
20260509201503 71 269 3.0 10.0 0.00 0.00 0.00 71 1009.1
20260509201004 71 261 4.0 15.0 0.00 0.00 0.00 71 1009.1
20260509200503 71 244 5.0 15.0 0.00 0.00 0.00 70 1009.3
20260509195502 74 212 4.0 10.0 0.00 0.00 0.00 66 1009.4
20260509195003 74 186 4.0 9.0 0.00 0.00 0.00 65 1009.5
20260509194503 73 279 4.0 9.0 0.00 0.00 0.00 65 1009.4
20260509194003 73 228 5.0 9.0 0.00 0.00 0.00 67 1009.5
20260509193503 73 324 5.0 10.0 0.00 0.00 0.00 67 1009.6
20260509193005 72 268 5.0 13.0 0.00 0.00 0.00 69 1009.8
20260509192502 71 188 4.0 13.0 0.00 0.00 0.00 69 1009.9
20260509192003 72 254 4.0 10.0 0.00 0.00 0.00 69 1009.9